Location: Düngen
(52.0952°N, 10.0219°E)
Time: 18:57:57
(UTC+00:00)

Cosmos 1076 Rocket - Pass Details

Date: 11 March 2026
Orbit: 582 x 602 km, 82.5° (Epoch: 20 April)

Event Time Altitude Azimuth Distance (km) Brightness Sun altitude
Rises 19:11:11 0° 199° (SSW) 2,795 6.9 -18.1°
Reaches altitude 10° 19:13:24 10° 203° (SSW) 1,899 6.1 -18.4°
Maximum altitude 19:17:32 60° 284° (WNW) 674 4.0 -19.0°
Drops below altitude 10° 19:21:43 10° 4° (N) 1,915 6.3 -19.6°
Sets 19:23:57 0° 9° (N) 2,821 7.1 -19.9°
